Location: Bernadets
(43.3537°N, 0.3167°E)
Time: 19:55:19
(UTC+00:00)

Cosmos 2360 Rocket - Pass Details

Date: 24 October 2021
Orbit: 832 x 846 km, 71.0° (Epoch: 06 December)

Event Time Altitude Azimuth Distance (km) Brightness Sun altitude
Rises 19:56:48 0° 236° (WSW) 3,379 5.9 -32.4°
Reaches altitude 10° 19:59:34 10° 248° (WSW) 2,451 5.2 -32.9°
Maximum altitude 20:04:23 28° 307° (NW) 1,523 4.0 -33.7°
Enters shadow 20:08:18 14° 360° (N) 2,190 4.5 -34.4°
